Location: Sternwarte_Laufen
(47.9344°N, 12.9346°E)
Time: 06:16:43
(UTC+02:00)

ISS - Pass Details

Date: 18 July 2018
Orbit: 402 x 408 km, 51.6° (Epoch: 21 July)

Event Time Altitude Azimuth Distance (km) Brightness Sun altitude
Rises 03:58:25 0° 292° (WNW) 2,333 -0.1 -11.9°
Reaches altitude 10° 04:00:31 10° 294° (WNW) 1,472 -1.1 -11.6°
Maximum altitude 04:03:49 74° 19° (NNE) 430 -3.6 -11.3°
Drops below altitude 10° 04:07:06 10° 106° (ESE) 1,469 -0.7 -10.9°
Sets 04:09:12 0° 108° (ESE) 2,328 0.3 -10.7°
